FW7645 Weather Reports


Display with metric or nautical units.
time (UTC)temp
F
wind
direction
speed
MPH
gust
MPH
rain 1hr
in
rain 24hr
in
rain mn
in
humidity
%
barometer
mb
20260507114546 40 0 0.0 0.0 0.00 0.21 0.00 80 1013.5
20260507113037 39 0 0.0 0.0 0.00 0.21 0.00 82 1013.4
20260507111537 38 0 0.0 0.0 0.00 0.21 0.00 83 1013.3
20260507110043 38 0 0.0 0.0 0.00 0.21 0.00 84 1013.1
20260507104548 38 0 0.0 0.0 0.00 0.23 0.00 83 1012.9
20260507103038 38 0 0.0 0.0 0.00 0.23 0.00 82 1013.0
20260507101536 39 0 0.0 0.0 0.00 0.23 0.00 80 1012.8
20260507100039 39 0 0.0 1.0 0.00 0.23 0.00 77 1012.8
20260507094536 39 0 0.0 0.0 0.00 0.23 0.00 77 1012.7
20260507093042 40 0 0.0 0.0 0.00 0.23 0.00 76 1012.4
20260507091543 41 0 0.0 0.0 0.00 0.23 0.00 73 1012.5
20260507090037 41 0 0.0 0.0 0.00 0.23 0.00 71 1012.7
20260507084538 42 0 0.0 0.0 0.00 0.23 0.00 67 1012.4
20260507083038 43 0 0.0 0.0 0.00 0.23 0.00 68 1012.6
20260507081536 44 0 0.0 1.0 0.00 0.23 0.00 65 1012.7
20260507080041 45 0 0.0 1.0 0.00 0.23 0.00 62 1012.6
20260507074545 46 0 0.0 2.0 0.00 0.23 0.00 59 1012.7
20260507073044 46 245 0.0 2.0 0.00 0.23 0.00 59 1012.8
20260507071538 46 250 1.0 3.0 0.00 0.23 0.00 60 1012.7
20260507070041 46 0 0.0 2.0 0.00 0.23 0.00 58 1012.5
20260507064537 46 0 0.0 1.0 0.00 0.23 0.00 59 1012.8
20260507063053 46 0 0.0 3.0 0.00 0.23 0.00 59 1012.8
20260507061546 46 330 0.0 4.0 0.00 0.23 0.00 60 1013.0
20260507060045 47 0 0.0 1.0 0.00 0.23 0.00 62 1013.1
20260507054536 47 0 0.0 2.0 0.00 0.23 0.00 60 1013.2
20260507053039 48 0 0.0 2.0 0.00 0.23 0.00 61 1013.0
20260507051544 48 0 0.0 3.0 0.00 0.23 0.00 59 1013.2
20260507050039 48 278 0.0 5.0 0.00 0.23 0.00 59 1013.2
20260507044542 49 236 0.0 2.0 0.00 0.23 0.00 61 1013.1
20260507043037 49 255 0.0 1.0 0.00 0.23 0.00 63 1013.2
20260507041535 49 0 0.0 1.0 0.00 0.23 0.00 63 1013.0
20260507040035 49 0 0.0 0.0 0.00 0.23 0.00 66 1012.9
20260507034542 49 0 0.0 0.0 0.00 0.23 0.23 64 1012.9
20260507033042 49 282 0.0 2.0 0.00 0.23 0.23 63 1012.8
20260507031539 50 0 0.0 2.0 0.00 0.23 0.23 67 1012.7
20260507030035 50 314 0.0 1.0 0.00 0.23 0.23 71 1012.5
20260507024538 50 293 1.0 6.0 0.00 0.23 0.23 73 1012.4
20260507023037 50 221 0.0 5.0 0.00 0.23 0.23 78 1012.3
20260507021542 50 0 0.0 0.0 0.00 0.23 0.23 78 1012.1
20260507020043 51 0 0.0 3.0 0.00 0.23 0.23 77 1012.1
20260507014547 51 0 0.0 1.0 0.00 0.23 0.23 78 1012.6
20260507013047 52 0 0.0 0.0 0.00 0.23 0.23 76 1012.5
20260507011537 52 0 0.0 3.0 0.00 0.23 0.23 76 1012.7
20260507010051 52 264 0.0 3.0 0.00 0.23 0.23 75 1012.8
20260507004540 52 0 0.0 3.0 0.00 0.23 0.23 76 1012.5
20260507003039 52 0 0.0 2.0 0.00 0.23 0.23 75 1012.2
20260507001539 52 0 0.0 2.0 0.00 0.23 0.23 77 1011.8
20260507000039 53 0 1.0 4.0 0.00 0.23 0.23 78 1011.8
20260506234537 53 184 0.0 2.0 0.00 0.23 0.23 79 1011.5
20260506233054 53 242 2.0 5.0 0.00 0.23 0.23 78 1011.2
20260506231542 53 289 0.0 2.0 0.00 0.23 0.23 79 1011.1
20260506230041 53 312 2.0 8.0 0.00 0.23 0.23 77 1011.1
20260506224540 54 314 1.0 6.0 0.00 0.23 0.23 79 1011.1
20260506223035 55 354 2.0 7.0 0.00 0.23 0.23 77 1010.8
20260506221539 55 0 0.0 3.0 0.00 0.23 0.23 77 1010.3
20260506220036 56 280 1.0 7.0 0.00 0.23 0.23 77 1010.3
20260506214537 56 57 0.0 8.0 0.00 0.23 0.23 78 1010.1
20260506213041 57 274 2.0 9.0 0.00 0.23 0.23 77 1009.8
20260506211539 57 240 2.0 8.0 0.00 0.23 0.23 78 1009.4
20260506210038 58 262 1.0 7.0 0.00 0.23 0.23 78 1009.2
20260506204545 58 89 1.0 6.0 0.00 0.28 0.23 78 1009.0
20260506203037 58 234 1.0 4.0 0.00 0.28 0.23 79 1008.9
20260506201536 59 342 2.0 6.0 0.00 0.28 0.23 80 1008.9
20260506200042 58 318 0.0 9.0 0.00 0.28 0.23 82 1008.7
20260506194546 59 0 2.0 9.0 0.00 0.28 0.23 81 1008.6
20260506193041 60 248 2.0 7.0 0.00 0.28 0.23 83 1008.2
20260506191539 60 170 1.0 4.0 0.00 0.28 0.23 85 1008.1
20260506190037 61 79 0.0 2.0 0.00 0.28 0.23 85 1007.8
20260506184537 60 0 0.0 4.0 0.01 0.28 0.23 89 1007.7
20260506183039 59 0 0.0 3.0 0.02 0.28 0.23 89 1008.0
20260506181537 59 109 0.0 2.0 0.02 0.28 0.23 90 1007.9
20260506180040 59 137 0.0 2.0 0.02 0.28 0.23 91 1008.0
20260506174537 59 0 0.0 1.0 0.01 0.27 0.22 91 1007.8
20260506173044 59 122 0.0 4.0 0.00 0.26 0.21 90 1007.8
20260506171540 59 0 0.0 2.0 0.00 0.26 0.21 89 1007.7
20260506170041 60 127 0.0 2.0 0.01 0.26 0.21 88 1007.5
20260506164550 60 323 1.0 4.0 0.01 0.26 0.21 89 1007.3
20260506163042 60 110 0.0 2.0 0.01 0.26 0.21 90 1007.6
20260506161538 59 115 0.0 4.0 0.01 0.26 0.21 91 1007.6
20260506160046 58 96 0.0 1.0 0.00 0.25 0.20 92 1007.5
20260506154550 58 151 0.0 1.0 0.00 0.25 0.20 91 1007.7
20260506153038 57 0 0.0 1.0 0.00 0.25 0.20 91 1007.5
20260506151539 57 0 0.0 2.0 0.01 0.25 0.20 91 1007.4
20260506150038 57 114 0.0 2.0 0.01 0.25 0.20 91 1007.3
20260506144537 57 0 0.0 1.0 0.02 0.25 0.20 91 1007.0
20260506143038 57 0 0.0 4.0 0.02 0.25 0.20 91 1007.3
20260506141554 56 0 0.0 5.0 0.02 0.24 0.19 91 1006.9
20260506140040 56 0 0.0 3.0 0.02 0.24 0.19 90 1007.1
20260506134537 56 146 0.0 2.0 0.01 0.23 0.18 91 1007.0
20260506133037 56 0 0.0 1.0 0.01 0.23 0.18 91 1007.2
20260506131538 56 0 0.0 1.0 0.02 0.22 0.17 90 1007.4
20260506130037 56 0 0.0 3.0 0.05 0.22 0.17 90 1007.3
20260506124542 55 127 1.0 3.0 0.09 0.22 0.17 90 1007.3
20260506123043 56 0 0.0 3.0 0.12 0.22 0.17 91 1007.2
20260506121541 56 0 0.0 2.0 0.12 0.20 0.15 92 1007.3